Time,TemperatureF,DewpointF,PressureIn,WindDirection,WindDirectionDegrees,WindSpeedMPH,WindSpeedGustMPH,Humidity,HourlyPrecipIn,Conditions,Clouds,dailyrainin,SoftwareType,DateUTC
2013-12-13 00:22:00,35.0,6.0,29.49,North,360,4.0,11.0,29,0.00,,,0.00,,2013-12-13 07:22:00,
2013-12-13 00:42:00,36.0,6.0,29.49,North,360,5.0,11.0,28,0.00,,,0.00,,2013-12-13 07:42:00,
2013-12-13 00:52:00,36.0,5.0,29.47,North,360,8.0,10.0,27,0.00,,,0.00,,2013-12-13 07:52:00,
2013-12-13 01:22:00,37.0,4.0,29.46,North,360,10.0,13.0,25,0.00,,,0.00,,2013-12-13 08:22:00,
2013-12-13 01:52:00,36.0,4.0,29.45,North,360,7.0,12.0,26,0.00,,,0.00,,2013-12-13 08:52:00,
2013-12-13 02:22:00,36.0,4.0,29.44,SSE,163,7.0,12.0,26,0.00,,,0.00,,2013-12-13 09:22:00,
2013-12-13 02:54:00,36.0,4.0,29.43,North,360,7.0,9.0,25,0.00,,,0.00,,2013-12-13 09:54:00,
2013-12-13 03:23:00,36.0,4.0,29.43,North,360,3.0,8.0,26,0.00,,,0.00,,2013-12-13 10:23:00,
2013-12-13 03:53:00,32.0,5.0,29.42,North,360,4.0,6.0,31,0.00,,,0.00,,2013-12-13 10:53:00,
2013-12-13 04:22:00,34.0,4.0,29.41,SE,138,5.0,8.0,28,0.00,,,0.00,,2013-12-13 11:22:00,
2013-12-13 04:53:00,35.0,4.0,29.41,North,360,5.0,8.0,27,0.00,,,0.00,,2013-12-13 11:53:00,
2013-12-13 05:42:00,34.0,4.0,29.40,North,360,7.0,9.0,27,0.00,,,0.00,,2013-12-13 12:42:00,
2013-12-13 05:53:00,35.0,4.0,29.40,North,360,7.0,11.0,27,0.00,,,0.00,,2013-12-13 12:53:00,
2013-12-13 06:22:00,34.0,4.0,29.40,North,360,3.0,7.0,27,0.00,,,0.00,,2013-12-13 13:22:00,
2013-12-13 06:52:00,31.0,5.0,29.40,North,360,4.0,6.0,33,0.00,,,0.00,,2013-12-13 13:52:00,
2013-12-13 07:22:00,33.0,4.0,29.41,North,360,6.0,8.0,29,0.00,,,0.00,,2013-12-13 14:22:00,
2013-12-13 07:42:00,32.0,5.0,29.41,North,360,4.0,7.0,31,0.00,,,0.00,,2013-12-13 14:42:00,
2013-12-13 07:53:00,32.0,5.0,29.41,North,360,6.0,8.0,31,0.00,,,0.00,,2013-12-13 14:53:00,
2013-12-13 08:22:00,34.0,4.0,29.42,North,360,5.0,7.0,28,0.00,,,0.00,,2013-12-13 15:22:00,
2013-12-13 08:44:00,35.0,5.0,29.42,North,360,5.0,8.0,28,0.00,,,0.00,,2013-12-13 15:44:00,
2013-12-13 08:53:00,34.0,6.0,29.43,North,360,0.0,5.0,30,0.00,,,0.00,,2013-12-13 15:53:00,
2013-12-13 09:23:00,36.0,5.0,29.45,North,360,0.0,0.0,27,0.00,,,0.00,,2013-12-13 16:23:00,
2013-12-13 09:43:00,37.0,6.0,29.45,North,360,0.0,0.0,27,0.00,,,0.00,,2013-12-13 16:43:00,
2013-12-13 09:53:00,38.0,5.0,29.46,North,360,0.0,2.0,25,0.00,,,0.00,,2013-12-13 16:53:00,
2013-12-13 10:22:00,42.0,6.0,29.46,North,360,2.0,4.0,22,0.00,,,0.00,,2013-12-13 17:22:00,
2013-12-13 11:22:00,48.0,5.0,29.44,NE,34,2.0,3.0,17,0.00,,,0.00,,2013-12-13 18:22:00,
2013-12-13 11:42:00,48.0,4.0,29.44,North,360,1.0,7.0,16,0.00,,,0.00,,2013-12-13 18:42:00,
2013-12-13 12:22:00,50.0,4.0,29.41,North,360,0.0,6.0,15,0.00,,,0.00,,2013-12-13 19:22:00,
2013-12-13 12:52:00,50.0,6.0,29.39,North,360,4.0,9.0,16,0.00,,,0.00,,2013-12-13 19:52:00,
2013-12-13 13:22:00,51.0,6.0,29.39,ENE,60,4.0,8.0,16,0.00,,,0.00,,2013-12-13 20:22:00,
2013-12-13 13:53:00,51.0,9.0,29.39,North,360,5.0,10.0,18,0.00,,,0.00,,2013-12-13 20:53:00,
2013-12-13 14:21:00,49.0,11.0,29.41,North,360,8.0,13.0,21,0.00,,,0.00,,2013-12-13 21:21:00,
2013-12-13 14:53:00,45.0,13.0,29.44,North,360,9.0,15.0,27,0.00,,,0.00,,2013-12-13 21:53:00,
2013-12-13 15:23:00,45.0,14.0,29.47,North,360,7.0,11.0,28,0.00,,,0.00,,2013-12-13 22:23:00,
2013-12-13 15:53:00,41.0,12.0,29.48,North,360,11.0,17.0,30,0.00,,,0.00,,2013-12-13 22:53:00,
2013-12-13 16:22:00,42.0,14.0,29.50,North,351,6.0,11.0,31,0.00,,,0.00,,2013-12-13 23:22:00,
2013-12-13 16:53:00,39.0,14.0,29.52,North,360,8.0,11.0,36,0.00,,,0.00,,2013-12-13 23:53:00,
2013-12-13 17:21:00,38.0,16.0,29.54,North,360,7.0,11.0,40,0.00,,,0.00,,2013-12-14 00:21:00,
2013-12-13 17:52:00,36.0,15.0,29.56,North,360,3.0,7.0,42,0.00,,,0.00,,2013-12-14 00:52:00,
2013-12-13 18:22:00,34.0,14.0,29.57,North,360,1.0,4.0,43,0.00,,,0.00,,2013-12-14 01:22:00,
2013-12-13 18:52:00,32.0,15.0,29.59,North,360,0.0,0.0,49,0.00,,,0.00,,2013-12-14 01:52:00,
2013-12-13 19:22:00,30.0,15.0,29.60,North,360,0.0,0.0,52,0.00,,,0.00,,2013-12-14 02:22:00,
2013-12-13 19:42:00,30.0,14.0,29.60,NNE,17,0.0,0.0,51,0.00,,,0.00,,2013-12-14 02:42:00,
2013-12-13 19:52:00,30.0,15.0,29.61,North,360,0.0,0.0,52,0.00,,,0.00,,2013-12-14 02:52:00,
2013-12-13 20:22:00,28.0,15.0,29.63,East,90,0.0,0.0,57,0.00,,,0.00,,2013-12-14 03:22:00,
2013-12-13 20:54:00,28.0,16.0,29.63,East,90,0.0,0.0,59,0.00,,,0.00,,2013-12-14 03:54:00,
2013-12-13 21:23:00,28.0,17.0,29.64,East,90,0.0,0.0,62,0.00,,,0.00,,2013-12-14 04:23:00,
2013-12-13 21:53:00,28.0,17.0,29.65,East,92,0.0,0.0,62,0.00,,,0.00,,2013-12-14 04:53:00,
2013-12-13 22:22:00,27.0,16.0,29.65,East,91,0.0,0.0,64,0.00,,,0.00,,2013-12-14 05:22:00,
2013-12-13 22:42:00,26.0,16.0,29.65,East,91,0.0,0.0,65,0.00,,,0.00,,2013-12-14 05:42:00,
2013-12-13 22:53:00,28.0,16.0,29.67,North,360,3.0,8.0,60,0.00,,,0.00,,2013-12-14 05:53:00,
2013-12-13 23:22:00,30.0,15.0,29.69,North,360,6.0,10.0,52,0.00,,,0.00,,2013-12-14 06:22:00,
2013-12-13 23:42:00,31.0,15.0,29.69,North,360,7.0,11.0,51,0.00,,,0.00,,2013-12-14 06:42:00,
2013-12-13 23:52:00,30.0,15.0,29.69,North,360,3.0,5.0,52,0.00,,,0.00,,2013-12-14 06:52:00,